Current weather by "City, St" or "zip code"  
 
Advertise Here

Current Conditions: Fort Pierce, St. Lucie County International Airport, FL

Fair


76.0 F

Last Updated on Feb 28 2021, 7:53 am EST
Humidity: 74%
Wind Speed: SE 10.4 mph
Barometer 30.20 in
Dewpoint: 66.9 F
Visibility: 10.00 mi
Precip: --
Heat Index: NA
Wind Chill: NA
Current conditions at:

Fort Pierce, St. Lucie County International Airport, FL (KFPR)

Lat: 27.49806 Lon: 80.37667

Local Radar Image active severe weather and emergency alerts image image weather storm and storm spotter reports image weather observation monitoring service image
Local
Radar
Active
Alerts
Storm Reports Obs
Monitoring

Sign-up For Email & Text Message Weather Alert Notification Services


Advertise Here

Observation History for Fort Pierce, St. Lucie County International Airport, FL


Time Wind
(mph)
Vis
(mi)
Weather Precip (in) Temperature (F) Relative
Humidity
Wind
Chill
(F)
Heat
Index
(F)
Pressure
Air Dwpt altimeter
(in)
sea level
(mb)
Rmks
7:53 am EST SE 10.4 10.00 Fair -- 76.0 66.9 74% NA NA 30.20 1022.7
6:53 am EST SE 9.2 10.00 Fair -- 73.0 64.9 76% NA NA 30.19 1022.3
5:53 am EST SE 10.4 10.00 Fair -- 73.0 64.9 76% NA NA 30.18 1022.0
4:53 am EST SE 6.9 10.00 A Few Clouds -- 73.0 66.9 81% NA NA 30.18 1021.8
3:53 am EST SE 11.5 10.00 A Few Clouds -- 74.0 66.9 79% NA NA 30.18 1021.8
2:53 am EST SE 12.7 10.00 Fair -- 74.0 68.0 82% NA NA 30.18 1021.9
1:53 am EST E 10.4 10.00 A Few Clouds -- 74.0 69.1 85% NA NA 30.20 1022.7
12:53 am EST E 6.9 10.00 Partly Cloudy -- 73.0 69.1 87% NA NA 30.22 1023.3
11:53 pm EST E 8.1 10.00 Fair -- 73.0 69.1 87% NA NA 30.23 1023.5
10:53 pm EST E 3.5 10.00 Fair -- 70.0 66.9 90% NA NA 30.23 1023.7
9:53 pm EST SE 5.8 10.00 Fair -- 72.0 66.9 84% NA NA 30.23 1023.6
8:53 pm EST SE 6.9 10.00 Fair -- 72.0 66.9 84% NA NA 30.22 1023.1
7:53 pm EST SE 6.9 10.00 Fair -- 74.0 69.1 85% NA NA 30.21 1022.8
6:53 pm EST E 9.2 10.00 Partly Cloudy -- 76.0 70.0 82% NA NA 30.19 1022.4
5:53 pm EST SE 12.7 10.00 Fair -- 78.0 68.0 71% NA NA 30.18 1022.0
4:53 pm EST SE 16.1 10.00 Fair -- 80.0 68.0 67% NA 83 30.17 1021.7
3:53 pm EST SE 19.6 G 23.0 10.00 Fair -- 81.0 66.9 62% NA 83 30.17 1021.5
2:53 pm EST E 20.7 10.00 Fair and Breezy -- 82.0 66.9 60% NA 84 30.17 1021.7
1:53 pm EST SE 20.7 10.00 Fair and Breezy -- 82.0 66.9 60% NA 84 30.18 1022.1
12:53 pm EST SE 20.7 10.00 Fair and Breezy -- 83.0 66.0 57% NA 85 30.20 1022.7
11:53 am EST SE 18.4 10.00 Partly Cloudy -- 83.0 66.9 59% NA 86 30.22 1023.4
10:53 am EST SE 16.1 10.00 Partly Cloudy -- 82.0 66.9 60% NA 84 30.24 1023.8
9:53 am EST E 15.0 10.00 Partly Cloudy -- 80.0 68.0 67% NA 83 30.23 1023.5
8:53 am EST SE 10.4 10.00 Fair -- 78.0 68.0 71% NA NA 30.22 1023.3

Regional Weather Observation


Vero Beach, Vero Beach Municipal Airport, FL (KVRB)

Fair
75.0 F

Fort Pierce, St. Lucie County International Airport, FL (KFPR)

Fair
76.0 F

Okeechobee County Airport, FL (KOBE)

Fair
70.0 F

Witham Field Airport, FL (KSUA)

A Few Clouds
75.0 F

Melbourne International Airport, FL (KMLB)

Fair
74.0 F

Cocoa - Patrick Air Force Base, FL (KCOF)

Fair
72.0 F
Advertise Here

Advertise Here